Regional Weather Roundup
Issued by NWS

Home | Current Version | Previous Version | Text Only | Print | Product List | Glossary On
Versions: 1 2 3 4 5 6 7 8 9 10 11 12 13 14 15 16 17 18 19 20 21 22 23 24 25 26 27 28 29 30 31 32 33 34 35 36 37 38 39 40 41 42 43 44 45 46 47 48 49 50
000
ASUS44 KLUB 270501
RWRTX
WEST TEXAS WEATHER ROUNDUP
NATIONAL WEATHER SERVICE LUBBOCK TX
1200 AM CDT WED MAY 27 2015

NOTE: "FAIR" INDICATES FEW OR NO CLOUDS BELOW 12,000 FEET WITH NO
SIGNIFICANT WEATHER AND/OR OBSTRUCTIONS TO VISIBILITY.

TXZ004-006>008-010-012-014-016-OKZ002-270600-
TEXAS PANHANDLE/OKLAHOMA PANHANDLE

CITY           SKY/WX    TMP DP  RH WIND       PRES   REMARKS
AMARILLO       MOCLDY    65  57  75 E10       30.05R
BORGER         MOCLDY    68  55  63 E3        30.03R
CANADIAN       MOCLDY    65  61  85 S3        30.01R
DALHART        MOCLDY    62  54  74 E10       30.05S
DUMAS          MOCLDY    62  55  76 E9        30.05S
GUYMON         CLOUDY    66  57  72 SE5       30.03R
$$

TXZ026-029-035-045-048-270600-
SOUTHERN PANHANDLE/SOUTH PLAINS/ROLLING PLAINS

CITY           SKY/WX    TMP DP  RH WIND       PRES   REMARKS
CHILDRESS      CLEAR     66  59  78 S10       29.99R
LUBBOCK        CLEAR     65  52  62 NE9       30.01F
$$

TXZ052-054-060>062-072-078-127-140-154-169-270600-
PERMIAN BASIN/CONCHO VALLEY/BIG COUNTRY/EDWARDS PLATEAU

CITY           SKY/WX    TMP DP  RH WIND       PRES   REMARKS
ABILENE        MOCLDY    67  61  81 SE15      30.02R
JUNCTION       CLEAR     76  70  82 CALM      30.01R
MIDLAND        CLEAR     73  66  78 SE12      30.00S
ODESSA         CLEAR     75  64  68 S10       30.01S
SAN ANGELO     CLEAR     74  67  78 S5        29.98R
WINK           CLEAR     74  59  59 SE12      29.96R
$$

TXZ055-058-074-075-080-082-270600-
FAR WEST/SOUTHWEST MOUNTAINS/TRANS PECOS

CITY           SKY/WX    TMP DP  RH WIND       PRES   REMARKS
DRYDEN           N/A     75  65  70 VRB3      29.97R
EL PASO        MOCLDY    72  27  18 E6        30.00S
FORT STOCKTON  CLEAR     74  65  73 SE13      30.01R
GUADALUPE PASS PTCLDY    73  23  15 E6        30.14R
MARFA          CLEAR     63  36  36 NE9       30.11S
$$

TXZ014-016-019-021>030-083-270600
TEXAS TECH WEST TEXAS MESONET/TEXAS PANHANDLE/NORTHERN SOUTH PLAINS

CITY           SKY/WX    TMP DP  RH WIND       PRES   REMARKS
ABERNATHY 5ENE   N/A     64  54  71 E6        30.04S
AMARILLO 7SSE    N/A     63  58  84 E7        30.06S
AMHERST 1NE      N/A     62  51  67 NE5       30.05R
BOOTLEG 11WNW    N/A     59  52  77 E9        30.09R
CANADIAN 6E      N/A     65  60  85 E6        30.00R
CAPROCK CYN SP   N/A     62  58  87 NW3       30.00S
CHILDRESS 2NNE   N/A     66  58  74 SE16      29.98S
CLARENDON 2WSW   N/A     63  57  82 N3        30.01R
CLAUDE 12SW      N/A     63  57  82 NE8       30.04S
DIMMITT 2NE      N/A     60  55  81 E8        30.06R
FLOYDADA 2NNE    N/A     64  57  76 NE5       30.02S
FRIONA 2NE       N/A     60  53  78 E8        30.07R
GOODLETT 3W      N/A     66  58  74 S12       29.96F
HART 3N          N/A     64  55  73 E8        30.05S
HEREFORD 2NW     N/A     66  51  58 E7        30.05S
MCLEAN 1E        N/A     62  58  88 E5        30.01R
MEMPHIS 1NE      N/A     65  60  84 E6        29.98R
MULESHOE 2SSW    N/A     56  51  82 E3        30.05R
OLTON 6S         N/A     63  54  74 E8        30.05R
PALO DURO SP     N/A     68  55  62 S5        30.06S
PAMPA 2E         N/A     62  58  88 N2        30.03F
PLAINVIEW 1S     N/A     66  57  73 E2        30.03S
SILVERTON 7ESE   N/A     65  56  74 N3        30.03S
TULIA 2ENE       N/A     62  57  84 E5        30.04S
UMBARGER 3NNE    N/A     60  56  85 E6        30.06R
$$

TXZ033>036-039>041-045>048-270600
TEXAS TECH WEST TEXAS MESONET/SOUTH PLAINS

CITY           SKY/WX    TMP DP  RH WIND       PRES   REMARKS
AIKEN 3WSW       N/A     63  58  83 E6        30.04F
ANDREWS 2NE      N/A     68  57  68 SE8       30.01S
ANTON 6SSW       N/A     66  52  59 E3        30.03R
BROWNFIELD 2S    N/A     65  51  59 E5        30.02S
DENVR CTY 7WNW   N/A     65  44  47 E5        30.04R
GAIL 2ESE        N/A     66  60  81 S7        29.98S
LAMESA 2SE       N/A     68  62  82 SE7       30.02R
LEVELLAND 4S     N/A     61  50  66 CALM      30.03S
LUBBOCK 3WNW     N/A     65  49  56 NE2       30.02S
MORTON 1ENE      N/A     64  46  51 E2        30.04S
ODONNELL 1N      N/A     68  51  54 SE3       30.02R
PLAINS 3N        N/A     66  44  45 SE5       30.04R
RALLS 1SE        N/A     65  55  71 NE6       30.02S
REESE CENTER     N/A     65  48  54 NE7       30.03R
SEAGRAVES 1SW    N/A     68  46  45 E3        30.02S
SEMINOLE 2NNE    N/A     64  47  53 SE5       30.02R
SLATON 2NE       N/A     66  52  61 E3        30.01S
SNYDER 3E        N/A     65  60  82 SE8       29.99S
SUNDOWN 8SW      N/A     62  45  52 SE5       30.04R
TAHOKA 3NNE      N/A     64  52  64 SE7       30.01S
WOLFFORTH 6SSW   N/A     65  51  62 SE8       30.03R
$$

TXZ031-032-036>038-042>044-270600-
TEXAS TECH WEST TEXAS MESONET/ROLLING PLAINS

CITY           SKY/WX    TMP DP  RH WIND       PRES   REMARKS
ASPERMONT 3NE    N/A     65  62  90 SE9       29.97R
FLUVANNA 3WNW    N/A     66  58  73 SW2       30.00R
GUTHRIE 10WSW    N/A     60  59  95 NE5       29.98S
HASKELL 1NW      N/A     65  61  87 SE9       29.98R
JAYTON 1SSE      N/A     63  60  90 SE8       29.97S
KNOX CITY 3NW    N/A     66  60  79 SE13      29.96R
LK A HENRY 1NW   N/A     67  58  73 S7        29.98R
NORTHFIELD 1S    N/A     66  60  81 SE12      29.97S
ODELL 4ENE       N/A     67  59  73 S12       29.97R
PADUCAH 10SW     N/A     64  59  82 S8        29.99R
POST 1NE         N/A     69  51  51 SW8       29.99R
RRING SPRGS 3N   N/A     64  59  85 SE13      30.01R
SEYMOUR 3NW      N/A     67  59  74 SE13      29.95S
SPUR 1W          N/A     64  58  79 E5        29.97F
WEINERT 2NNE     N/A     65  61  88 SE13      29.97R
WHITE RVR 6NE    N/A     65  52  60 NW9       29.99S
$$

TXZ052-054-060>062-072-078-127-140-154-169-270600-
TEXAS TECH WEST TEXAS MESONET/PERMIAN BASIN/
CONCHO VALLEY/BIG COUNTRY/EDWARDS PLATEAU

CITY           SKY/WX    TMP DP  RH WIND       PRES   REMARKS
JUNCTION 1SSW    N/A     75  71  87 SE1       30.01R
MERTZON 3NNE     N/A     73  68  83 S7        30.00R
SAN ANGELO 7NW   N/A     69  64  82 SE2       29.99R
STRLNG CT 4WSW   N/A     68  65  92 SE1       30.01S
ST LAWRNCE 5SW   N/A     70  66  88 SE7       30.02R
SWEETWATR 11SW   N/A     69  62  79 S5        30.02R
WALL 1E          N/A     74  65  72 SE3       30.00R
$$

TXZ055-058-074-075-080-082-270600-
TEXAS TECH WEST TEXAS MESONET/FAR WEST/SOUTHWEST MOUNTAINS/TRANS PECOS

CITY           SKY/WX    TMP DP  RH WIND       PRES   REMARKS
PRSMN GAP BBNP   N/A     75  59  56 N20       29.96R
$$


USA.gov is the U.S. government's official web portal to all federal, state and local government web resources and services.